Skip Page Navigation
NASA JPL Caltech
NASA Logo - Jet Propulsion Laboratory + View the NASA Portal
+ Center for Near-Earth Object Studies
JPL Home Earth Solar System Stars & Galaxies Technology
JPL Solar System Dynamics
BODIES ORBITS EPHEMERIDES TOOLS PHYSICAL DATA DISCOVERY FAQ SITE MAP
JPL Small-Body Database Browser
Search: [ help ]  
437096 (2012 UZ88)
Classification: Main-belt Asteroid          SPK-ID: 2437096
Ephemeris | Orbit Diagram | Orbital Elements | Mission Design | Physical Parameters | Discovery Circumstances | Close-Approach Data ]

[ show orbit diagram ]
Orbital Elements at Epoch 2459000.5 (2020-May-31.0) TDB
Reference: JPL 16 (heliocentric ecliptic J2000)
 Element Value Uncertainty (1-sigma)   Units 
e .0910075700019233 7.1485e-08  
a 3.069086411968869 7.1872e-08 au
q 2.78977631548966 2.4694e-07 au
i 21.68391880729493 1.3321e-05 deg
node 230.4903203808696 2.4208e-05 deg
peri 53.29931687348193 0.00011286 deg
M 269.4565218282989 0.00011754 deg
tp 2459494.431557573965
(2021-Oct-06.93155757)
0.00064545 TDB
period 1963.867131207719
5.38
6.8985e-05
1.889e-07
d
yr
n .1833117904359501 6.4392e-09 deg/d
Q 3.348396508448077 7.8413e-08 au
  Orbit Determination Parameters
   # obs. used (total)      144  
   data-arc span      4971 days (13.61 yr)  
   first obs. used      2006-09-17  
   last obs. used      2020-04-27  
   planetary ephem.      DE431  
   SB-pert. ephem.      SB431-N16  
   condition code      0  
   norm. resid. RMS      .50798  
   source      ORB  
   producer      Otto Matic  
   solution date      2020-May-22 03:39:29  

Additional Information
 Earth MOID = 1.82085 au 
 Jupiter MOID = 1.77519 au 
 T_jup = 3.117 
[ hide covariance matrix ]
Orbital Elements at Epoch 2457579.5 (2016-Jul-10.0) TDB
Reference: JPL 16 (heliocentric ecliptic J2000)
 Element Value Uncertainty (1-sigma)   Units 
e .09004338008831071 7.2011e-08  
q 2.793547479158202 2.4842e-07 au
tp 2457526.884932638921
(2016-May-18.38493264)
0.00063727 TDB
node 230.5116911261471 2.4205e-05 deg
peri 52.83551640353657 0.00011386 deg
i 21.68240050180853 1.3321e-05 deg
  Orbit Determination Parameters
   # obs. used (total)      144  
   data-arc span      4971 days (13.61 yr)  
   first obs. used      2006-09-17  
   last obs. used      2020-04-27  
   planetary ephem.      DE431  
   SB-pert. ephem.      SB431-N16  
   condition code      0  
   norm. resid. RMS      .50798  
   source      ORB  
   producer      Otto Matic  
   solution date      2020-May-22 03:39:29  

Additional Information
 Jupiter MOID = 1.77519 au 
 T_jup = 3.117 
Orbit Covariance (6×6)
  e q tp node peri i
e 5.185551488877261E-15 -1.731861024445502E-14 -1.768695400868971E-11 2.746642890671639E-14 -3.100216693655211E-12 -1.673192838980077E-14
q -1.731861024445502E-14 6.171322795834755E-14 6.051253367068942E-11 -9.354509228962266E-14 1.059768683687814E-11 7.400136562680146E-14
tp -1.768695400868971E-11 6.051253367068942E-11 4.061115974996205E-7 -4.398369197269476E-10 7.101343820879851E-8 4.601824913435324E-10
node 2.746642890671639E-14 -9.354509228962266E-14 -4.398369197269476E-10 5.858857508570852E-10 -6.208288872851664E-10 -1.67683482126315E-10
peri -3.100216693655211E-12 1.059768683687814E-11 7.101343820879851E-8 -6.208288872851664E-10 1.296393827917356E-8 2.362474407245124E-10
i -1.673192838980077E-14 7.400136562680146E-14 4.601824913435324E-10 -1.67683482126315E-10 2.362474407245124E-10 1.774410077981107E-10

Ephemeris | Orbit Diagram | Orbital Elements | Mission Design | Physical Parameters | Discovery Circumstances | Close-Approach Data ]

Physical Parameter Table
Parameter Symbol Value Units Sigma Reference Notes
absolute magnitude H 15.5   n/a MPO437695  
diameter diameter 5.882 km 0.480 urn:nasa:pds:neowise_diameters_albedos::2.0[mainbelt] (http://adsabs.harvard.edu/abs/2011ApJ...741...68M)  
geometric albedo albedo 0.082   0.032 urn:nasa:pds:neowise_diameters_albedos::2.0[mainbelt] (http://adsabs.harvard.edu/abs/2012ApJ...759L...8M)  

437096 (2012 UZ88)          Discovered 2010-Feb-16 by WISE at WISE
Reference: Last Updated: 2015-06-04

[ show close-approach data ]
Alternate Designations
 2012 UZ88 = 2010 DO14 = 2010 PF43 
Ephemeris | Orbit Diagram | Orbital Elements | Mission Design | Physical Parameters | Discovery Circumstances | Close-Approach Data ]
ABOUT SSD CREDITS/AWARDS PRIVACY/COPYRIGHT GLOSSARY LINKS
FirstGov 2020-Jul-07 17:13 UT
(server date/time)  
NASA Home Page
Site Manager:   Ryan S. Park
Webmaster  Alan B. Chamberlin